Location: Bad Salzschlirf
(50.3750°N, 9.3000°E)
Time: 03:44:20
(UTC+02:00)

ISS - Pass Details

Date: 04 July 2020
Orbit: 417 x 421 km, 51.6° (Epoch: 08 July)

Event Time Altitude Azimuth Distance (km) Brightness Sun altitude
Exits shadow 03:22:53 21° 188° (S) 1,002 -2.4 -12.4°
Maximum altitude 03:24:17 28° 147° (SSE) 807 -2.6 -12.3°
Drops below altitude 10° 03:27:13 10° 86° (E) 1,497 -0.5 -12.1°
Sets 03:29:29 0° 74° (ENE) 2,364 0.8 -12.0°
